Regional Weather Roundup
Issued by NWS

Home | Current Version | Previous Version | Text Only | Print | Product List | Glossary On
Versions: 1 2 3 4 5 6 7 8 9 10 11 12 13 14 15 16 17 18 19 20 21 22 23 24 25 26 27 28 29 30 31 32 33 34 35 36 37 38 39 40 41 42 43 44 45 46 47 48 49 50
000
ASUS44 KLIX 210911
RWRLA
LOUISIANA WEATHER ROUNDUP
NATIONAL WEATHER SERVICE NEW ORLEANS LA
400 AM CDT TUE APR 21 2015

NOTE: "FAIR" INDICATES FEW OR NO CLOUDS BELOW 12,000 FEET WITH NO
      SIGNIFICANT WEATHER AND/OR OBSTRUCTIONS TO VISIBILITY.
      SKY/WX - SKY CONDITION AND SIGNIFICANT WEATHER.
      TMP - AIR TEMPERATURE.    DP   - DEWPOINT TEMPERATURE.
      RH  - RELATIVE HUMIDITY.  PRES - PRESSURE.
      HX  - HEAT INDEX.         WCI  - WIND CHILL INDEX.

*  THESE STATIONS ARE NOT NWS OR FAA STATIONS AND ARE NOT UNDER
   NWS QUALITY CONTROL.

LAZ040-048-061>063-065-066-069-211000-
SOUTHEAST LOUISIANA

CITY           SKY/WX    TMP DP  RH WIND       PRES   REMARKS
N.O. AUDUBON   NOT AVBL
N.O. INTL ARPT MOCLDY    64  49  57 N9        29.97S
N.O. LAKEFRONT PTCLDY    70  48  45 N15       29.97S
SLIDELL        PTCLDY    55  53  93 CALM      29.97S
BATON ROUGE    MOCLDY    58  54  86 CALM      29.98S
BOOTHVILLE     PTCLDY    67  56  67 N7        29.95S
BELLE CHASSE   PTCLDY    60  51  72 NE5       29.96S
BOGALUSA*        N/A     53  49  85 CALM      30.00S
GALLIANO*      MOSUNNY   65  57  76 CALM      29.97S
NEW ROADS*     FAIR      59  54  84 N7        29.99S
GONZALES*      FAIR      57  57 100 CALM      29.98R
HAMMOND*       CLEAR     55  52  88 CALM      30.00R
HOUMA*         PTCLDY    59  55  87 CALM      29.97R
PORT FOURCHON* NOT AVBL

$$

LAZ041-044-053-054-211000-
SOUTHWEST LOUISIANA

CITY           SKY/WX    TMP DP  RH WIND       PRES   REMARKS
LAKE CHARLES   MOCLDY    59  50  72 NE6       29.98S
LAFAYETTE      CLOUDY    60  49  66 N5        29.98R
PATTERSON      MOCLDY    63  54  72 N6        29.98S
SALT POINT       N/A     62  57  83 N3        29.96R
NEW IBERIA     CLOUDY    59  52  77 N7        29.98S
CHENAULT AIRPK MOCLDY    59  53  80 N5        29.99S

$$

LAZ027-028-211000-
CENTRAL LOUISIANA

CITY           SKY/WX    TMP DP  RH WIND       PRES   REMARKS
FORT POLK      MOCLDY    58  46  64 N7        30.00R
ALEXANDRIA INT MOCLDY    54  53  97 NW3       29.99S
ALEXANDRIA     MOCLDY    51  49  92 CALM      30.01R

$$

LAZ001-002-211000-
NORTHWEST LOUISIANA

CITY           SKY/WX    TMP DP  RH WIND       PRES   REMARKS
SHREVEPORT     PTCLDY    52  47  83 CALM      30.02S
BARKSDALE AFB  CLEAR     50  50  99 CALM      30.02S
DTN SHREVEPORT CLEAR     52  48  86 CALM      30.03S

$$

LAZ014-016-211000-
NORTHEAST LOUISIANA

CITY           SKY/WX    TMP DP  RH WIND       PRES   REMARKS
MONROE         CLEAR     52  48  86 CALM      30.03S
TALLULAH       CLEAR     53  49  86 NW5       30.02R

$$




USA.gov is the U.S. government's official web portal to all federal, state and local government web resources and services.